TimeCDT,TemperatureF,Dew PointF,Humidity,Sea Level PressureIn,VisibilityMPH,Wind Direction,Wind SpeedMPH,Gust SpeedMPH,PrecipitationIn,Events,Conditions,WindDirDegrees,DateUTC
12:14 AM,51.8,32.0,47,30.16,10.0,South,3.5,-,N/A,,Clear,170,2012-09-28 05:14:00
12:34 AM,48.2,30.2,50,30.16,10.0,Calm,Calm,-,N/A,,Clear,0,2012-09-28 05:34:00
12:53 AM,46.4,30.2,53,30.16,10.0,Calm,Calm,-,N/A,,Clear,0,2012-09-28 05:53:00
1:14 AM,44.6,30.2,57,30.16,10.0,Calm,Calm,-,N/A,,Clear,0,2012-09-28 06:14:00
1:54 AM,42.8,30.2,61,30.16,10.0,Calm,Calm,-,N/A,,Clear,0,2012-09-28 06:54:00
2:14 AM,42.8,32.0,66,30.17,10.0,East,4.6,-,N/A,,Clear,90,2012-09-28 07:14:00
2:33 AM,42.8,30.2,61,30.16,10.0,East,3.5,-,N/A,,Clear,100,2012-09-28 07:33:00
2:54 AM,44.6,32.0,61,30.15,10.0,SE,3.5,-,N/A,,Clear,140,2012-09-28 07:54:00
3:14 AM,44.6,30.2,57,30.15,10.0,Calm,Calm,-,N/A,,Clear,0,2012-09-28 08:14:00
3:34 AM,41.0,30.2,65,30.15,10.0,Calm,Calm,-,N/A,,Clear,0,2012-09-28 08:34:00
3:54 AM,39.2,32.0,75,30.16,10.0,Calm,Calm,-,N/A,,Clear,0,2012-09-28 08:54:00
4:14 AM,39.2,30.2,70,30.16,10.0,East,3.5,-,N/A,,Clear,100,2012-09-28 09:14:00
4:34 AM,39.2,30.2,70,30.16,10.0,East,5.8,-,N/A,,Clear,80,2012-09-28 09:34:00
4:53 AM,39.2,30.2,70,30.16,10.0,SE,3.5,-,N/A,,Clear,130,2012-09-28 09:53:00
5:14 AM,39.2,30.2,70,30.16,10.0,East,4.6,-,N/A,,Clear,90,2012-09-28 10:14:00
5:34 AM,39.2,30.2,70,30.17,10.0,NE,4.6,-,N/A,,Clear,50,2012-09-28 10:34:00
5:54 AM,39.2,30.2,70,30.17,10.0,Calm,Calm,-,N/A,,Clear,0,2012-09-28 10:54:00
6:14 AM,41.0,30.2,65,30.17,10.0,Calm,Calm,-,N/A,,Clear,0,2012-09-28 11:14:00
6:34 AM,39.2,30.2,70,30.17,10.0,Calm,Calm,-,N/A,,Clear,0,2012-09-28 11:34:00
6:54 AM,39.2,30.2,70,30.18,10.0,East,3.5,-,N/A,,Clear,90,2012-09-28 11:54:00
7:14 AM,37.4,32.0,81,30.19,10.0,Calm,Calm,-,N/A,,Clear,0,2012-09-28 12:14:00
7:34 AM,37.4,30.2,75,30.18,10.0,Calm,Calm,-,N/A,,Clear,0,2012-09-28 12:34:00
7:53 AM,37.4,32.0,81,30.18,10.0,SE,3.5,-,N/A,,Clear,140,2012-09-28 12:53:00
8:14 AM,41.0,33.8,76,30.18,10.0,Calm,Calm,-,N/A,,Clear,0,2012-09-28 13:14:00
8:34 AM,44.6,33.8,66,30.18,7.0,Calm,Calm,-,N/A,,Clear,0,2012-09-28 13:34:00
8:53 AM,46.4,33.8,62,30.19,10.0,Calm,Calm,-,N/A,,Clear,0,2012-09-28 13:53:00
9:14 AM,51.8,33.8,50,30.19,7.0,Calm,Calm,-,N/A,,Clear,0,2012-09-28 14:14:00
9:33 AM,53.6,35.6,51,30.19,7.0,Calm,Calm,-,N/A,,Clear,0,2012-09-28 14:33:00
9:53 AM,57.2,35.6,44,30.19,7.0,Calm,Calm,-,N/A,,Clear,0,2012-09-28 14:53:00
10:14 AM,60.8,33.8,36,30.19,7.0,Calm,Calm,-,N/A,,Clear,0,2012-09-28 15:14:00
10:34 AM,62.6,33.8,34,30.19,10.0,Calm,Calm,-,N/A,,Clear,0,2012-09-28 15:34:00
10:53 AM,66.2,33.8,30,30.19,10.0,Calm,Calm,-,N/A,,Clear,0,2012-09-28 15:53:00
11:14 AM,69.8,30.2,23,30.19,10.0,South,3.5,-,N/A,,Clear,180,2012-09-28 16:14:00
11:34 AM,71.6,28.4,20,30.19,10.0,SSW,3.5,-,N/A,,Clear,210,2012-09-28 16:34:00
11:53 AM,71.6,28.4,20,30.19,10.0,Calm,Calm,-,N/A,,Clear,0,2012-09-28 16:53:00
12:13 PM,73.4,26.6,18,30.18,10.0,South,4.6,-,N/A,,Clear,190,2012-09-28 17:13:00
12:34 PM,75.2,24.8,15,30.17,10.0,SW,5.8,-,N/A,,Clear,220,2012-09-28 17:34:00
12:54 PM,77.0,21.2,12,30.17,10.0,South,5.8,-,N/A,,Clear,190,2012-09-28 17:54:00
1:14 PM,78.8,21.2,12,30.16,10.0,South,4.6,-,N/A,,Clear,180,2012-09-28 18:14:00
1:34 PM,78.8,19.4,11,30.16,10.0,WSW,4.6,-,N/A,,Clear,240,2012-09-28 18:34:00
1:54 PM,80.6,19.4,10,30.15,10.0,South,8.1,-,N/A,,Clear,180,2012-09-28 18:54:00
2:13 PM,80.6,19.4,10,30.14,10.0,South,6.9,-,N/A,,Clear,170,2012-09-28 19:13:00
2:53 PM,80.6,17.6,10,30.13,10.0,South,5.8,-,N/A,,Clear,190,2012-09-28 19:53:00
3:13 PM,80.6,17.6,10,30.12,10.0,SSW,5.8,-,N/A,,Clear,200,2012-09-28 20:13:00
3:34 PM,80.6,17.6,10,30.12,10.0,SW,3.5,-,N/A,,Clear,220,2012-09-28 20:34:00
3:54 PM,80.6,17.6,10,30.11,10.0,South,5.8,-,N/A,,Clear,190,2012-09-28 20:54:00
4:14 PM,80.6,17.6,10,30.10,10.0,SSW,6.9,-,N/A,,Clear,210,2012-09-28 21:14:00
4:33 PM,80.6,19.4,10,30.09,10.0,SSW,5.8,-,N/A,,Clear,210,2012-09-28 21:33:00
4:54 PM,82.4,19.4,10,30.09,10.0,SW,5.8,-,N/A,,Clear,220,2012-09-28 21:54:00
5:14 PM,82.4,19.4,10,30.09,10.0,SSW,3.5,-,N/A,,Clear,210,2012-09-28 22:14:00
5:34 PM,80.6,19.4,10,30.09,10.0,SSW,4.6,-,N/A,,Clear,200,2012-09-28 22:34:00
5:54 PM,80.6,19.4,10,30.09,10.0,Calm,Calm,-,N/A,,Clear,0,2012-09-28 22:54:00
6:14 PM,78.8,21.2,12,30.09,7.0,South,3.5,-,N/A,,Clear,190,2012-09-28 23:14:00
6:34 PM,77.0,23.0,13,30.09,7.0,Calm,Calm,-,N/A,,Clear,0,2012-09-28 23:34:00
6:53 PM,75.2,24.8,15,30.09,10.0,South,3.5,-,N/A,,Clear,170,2012-09-28 23:53:00
7:14 PM,71.6,26.6,19,30.09,10.0,SSE,4.6,-,N/A,,Clear,160,2012-09-29 00:14:00
7:34 PM,68.0,28.4,23,30.09,10.0,SSE,4.6,-,N/A,,Clear,160,2012-09-29 00:34:00
7:54 PM,66.2,28.4,24,30.09,10.0,South,5.8,-,N/A,,Clear,170,2012-09-29 00:54:00
8:14 PM,66.2,28.4,24,30.09,10.0,South,5.8,-,N/A,,Clear,170,2012-09-29 01:14:00
8:34 PM,64.4,33.8,32,30.09,10.0,South,4.6,-,N/A,,Clear,180,2012-09-29 01:34:00
8:54 PM,64.4,28.4,26,30.09,10.0,South,4.6,-,N/A,,Clear,170,2012-09-29 01:54:00
9:14 PM,64.4,32.0,30,30.09,10.0,South,4.6,-,N/A,,Clear,180,2012-09-29 02:14:00
9:34 PM,64.4,32.0,30,30.10,10.0,South,4.6,-,N/A,,Clear,190,2012-09-29 02:34:00
9:54 PM,62.6,35.6,37,30.10,10.0,SSW,4.6,-,N/A,,Clear,200,2012-09-29 02:54:00
10:14 PM,62.6,30.2,30,30.10,10.0,SSW,4.6,-,N/A,,Clear,200,2012-09-29 03:14:00
10:34 PM,57.2,30.2,36,30.10,10.0,Calm,Calm,-,N/A,,Clear,0,2012-09-29 03:34:00
10:54 PM,55.4,33.8,44,30.10,10.0,Calm,Calm,-,N/A,,Clear,0,2012-09-29 03:54:00
11:14 PM,59.0,37.4,45,30.10,10.0,SSW,4.6,-,N/A,,Clear,210,2012-09-29 04:14:00
11:33 PM,53.6,32.0,44,30.10,10.0,WSW,3.5,-,N/A,,Clear,250,2012-09-29 04:33:00
11:54 PM,57.2,33.8,41,30.10,10.0,SW,3.5,-,N/A,,Clear,220,2012-09-29 04:54:00